Content
SEND FEEDBACK

Daily
Averages
Monthly
Summary
United States of America

DEL MAR, CALIFORNIA


Home > North America > United States > California
Elevation: 60 meters     Latitude: 32 59N     Longitude: 117 15W

WEATHER
 
SELECT A DAY
Number of Records: 196,548;   Date Range: 1/1/95 - 7/7/14
 
SHARE

PRINT THIS DATA

[ ← Previous Day ]
WEATHER ALMANAC - 31 JANUARY, 2013
[ Next Day → ]
[ °F ]   °C
Weather ElementAverageHighLow
Temperature14 °C19.4 °C (11:53 am)8.3 °C (6:53 am)
Dewpoint6.3 °C9.4 °C (5:53 pm)3.9 °C (3:53 am)
Humidity60.9 %74 % (4:53 am)45 % (9:53 am)
Barometer1020.7 hPa1022.7 hPa (1:53 am)1018.6 hPa (2:53 pm)
Wind Speed3.9 km/h13 km/h (1:53 pm)
Weather ElementAverage
Visibility15.3 km
Wind DirectionESE (100.9 °)

Weather ElementTotal
Precipitation---
Heating Degree Days4.5 (Base 18.3)
Growing Degree Days3.8 (Base 10)
Averaged from 23 records on 31 January, 2013
WEATHER CONDITIONS BREAKOUT
WIND DIRECTION BREAKOUT
WEATHER BY HOUR - 31 JANUARY, 2013
[ °F ]   °C
Local TimeTemperatureDewpointHumidityBarometerVisibilityWind DirectionWind SpeedGust SpeedPrecipitationEventsConditions
1:53 AM10.6 °C4.4 °C66 %1022.7 hPa16.1 kmCalmClear
2:53 AM10.6 °C4.4 °C66 %1021.7 hPa16.1 kmEast (80°)5.6 km/hClear
3:53 AM11.1 °C3.9 °C61 %1021.3 hPa16.1 kmCalmClear
4:53 AM8.9 °C4.4 °C74 %1021.3 hPa16.1 kmCalmClear
5:53 AM8.9 °C3.9 °C71 %1021.3 hPa16.1 kmENE (60°)5.6 km/hClear
6:53 AM8.3 °C3.9 °C74 %1021.7 hPa16.1 kmCalmClear
7:53 AM10.6 °C5 °C68 %1021.7 hPa16.1 kmSE (130°)5.6 km/hClear
8:53 AM13.9 °C5 °C55 %1022.4 hPa16.1 kmCalmClear
9:53 AM17.2 °C5 °C45 %1022.7 hPa16.1 kmCalmClear
10:53 AM18.3 °C6.7 °C47 %1022 hPa16.1 kmWest (260°)7.4 km/hClear
11:53 AM19.4 °C7.2 °C45 %1020.7 hPa16.1 kmWest (270°)7.4 km/hClear
12:53 PM18.3 °C6.1 °C45 %1020 hPa16.1 kmWest (280°)11.1 km/hClear
1:53 PM18.3 °C7.8 °C50 %1019 hPa14.5 kmWest (270°)13 km/hClear
2:53 PM17.8 °C8.3 °C54 %1018.6 hPa12.9 kmWest (270°)7.4 km/hClear
3:53 PM17.8 °C8.3 °C54 %1019 hPa11.3 kmWSW (250°)7.4 km/hClear
4:53 PM17.2 °C8.9 °C58 %1019.3 hPa11.3 kmWest (280°)5.6 km/hClear
5:53 PM15.6 °C9.4 °C67 %1019.3 hPa14.5 kmCalmClear
6:53 PM15 °C8.9 °C67 %1019.3 hPa16.1 kmCalmClear
7:53 PM13.9 °C7.8 °C67 %1019.6 hPa16.1 kmCalmClear
8:53 PM13.9 °C7.2 °C64 %1019.6 hPa14.5 kmCalmClear
9:53 PM11.7 °C6.7 °C71 %1019.6 hPa14.5 kmCalmClear
10:53 PM12.2 °C6.7 °C69 %1019.6 hPa16.1 kmESE (110°)5.6 km/hClear
11:53 PM12.8 °C5.6 °C62 %1019.6 hPa16.1 kmENE (60°)5.6 km/hClear
Hourly data recorded from KCRQ, located 0 kilometers away from Del Mar, California







STORIES FROM OUR PARTNERS